Theta_e
292 292 291 291 291 290 290 290 290 290 290 289 289 288 287 287 287 287 286 286 286 285 284 283 283 282 282 282 282 281 280 280 280 280 280 281 281 281 280 280 280 280 280 280 279 279 279 279 279 279 279 279 278 279 279 279 279 278 278 279 279 279
292 291 291 290 290 290 290 289 289 289 289 289 289 288 287 287 286 286 285 285 285 284 283 283 282 282 281 281 280 280 280 280 280 280 280 280 280 280 279 279 279 279 278 278 278 278 278 278 278 278 278 278 278 278 278 278 278 277 277 278 279 279
292 292 291 291 290 290 289 289 288 288 288 288 288 287 286 286 286 285 285 284 283 283 282 281 281 280 280 280 280 279 279 280 280 280 280 280 279 279 278 278 278 278 278 277 277 277 277 277 277 277 277 277 276 277 277 276 276 276 276 277 277 277
292 291 291 291 289 288 288 288 288 288 287 287 288 287 286 285 285 284 284 283 282 282 281 281 280 280 280 279 279 279 279 279 279 279 279 278 278 278 278 277 277 277 277 277 276 276 276 276 276 276 276 276 275 275 275 275 275 274 274 275 274 275
292 291 289 289 288 288 288 288 287 287 287 287 287 286 286 285 285 284 283 282 281 281 281 280 279 279 279 279 279 278 278 279 279 279 278 278 278 278 277 277 277 277 276 276 276 276 276 276 275 275 275 274 274 274 274 274 273 272 272 272 272 273
291 290 289 288 288 287 287 287 287 287 287 287 287 286 285 285 284 283 282 281 281 281 280 279 279 279 278 278 278 278 278 278 278 278 277 277 277 277 277 277 276 276 276 275 275 275 275 274 274 274 274 273 273 272 272 272 272 272 271 271 271 271
290 289 289 288 288 288 287 287 287 287 286 286 286 286 285 284 283 282 281 281 280 280 279 279 279 278 278 278 278 278 278 278 278 278 277 277 276 276 276 276 276 275 275 274 274 274 273 273 273 272 272 272 272 272 271 271 271 271 271 270 270 271
290 289 289 289 288 288 287 287 287 286 286 286 286 285 285 283 282 282 281 280 280 279 279 279 278 278 278 278 278 278 278 278 277 277 277 277 276 276 276 275 274 274 273 273 273 273 272 272 272 271 271 271 271 271 271 271 270 270 270 270 270 270
289 289 289 289 288 288 287 287 286 286 286 286 286 285 284 283 282 281 280 280 279 279 278 278 278 278 278 278 278 278 277 277 277 276 276 276 275 274 274 273 273 273 272 272 272 271 271 271 271 271 271 271 271 270 270 270 270 270 270 270 270 270
290 289 289 288 288 288 287 287 286 286 285 285 285 284 283 282 281 281 280 280 279 279 278 278 279 278 278 278 278 277 277 276 276 275 275 274 273 272 272 272 271 271 271 271 271 271 271 271 270 270 270 270 270 270 270 270 270 270 270 270 270 270
291 290 289 288 288 287 286 286 286 286 286 285 285 283 282 282 281 280 280 279 279 279 279 279 279 278 278 277 277 276 275 275 274 274 273 272 271 271 271 271 270 270 270 270 270 270 270 270 270 270 270 270 270 270 270 270 270 271 271 271 271 271
293 292 290 289 288 287 286 286 285 285 285 284 284 282 282 281 280 279 279 279 279 279 279 278 277 277 276 276 275 274 274 273 272 271 270 270 270 269 269 269 269 269 269 269 270 270 270 270 270 271 272 273 271 271 271 271 271 271 271 271 270 271
294 294 292 289 288 287 286 286 285 285 284 284 282 282 281 280 279 279 278 278 278 278 278 277 276 275 274 274 274 273 272 271 270 269 269 268 268 268 268 268 268 268 269 269 269 269 270 270 270 272 273 274 275 273 272 272 272 272 272 272 271 271
294 294 293 291 289 287 286 286 285 285 284 283 282 281 280 280 279 278 278 278 278 277 276 275 275 274 273 272 271 270 269 269 268 267 267 267 267 267 267 267 268 269 269 269 269 269 269 269 271 273 274 274 275 275 273 273 272 272 272 272 272 272
294 293 293 292 289 288 287 286 285 284 284 282 282 280 279 279 278 278 278 277 277 276 275 274 273 272 271 270 269 268 267 267 266 266 266 266 267 267 267 267 268 268 269 269 268 268 269 269 271 272 273 274 275 276 275 273 273 272 272 272 272 271
296 294 293 292 290 288 287 286 285 284 283 281 280 278 278 278 278 278 277 276 275 275 274 273 271 270 269 268 267 266 266 265 265 266 266 266 267 266 267 267 268 268 268 268 268 268 268 268 270 272 273 274 275 276 275 273 273 272 272 272 272 271
294 292 290 290 288 287 286 285 284 282 281 280 278 278 277 277 277 277 276 275 274 273 272 271 270 269 268 267 266 265 265 265 265 266 266 266 266 266 267 267 267 267 267 267 267 267 267 268 271 272 274 274 275 276 276 273 272 272 271 272 272 272
292 291 290 288 287 285 285 284 283 281 280 279 278 277 277 277 276 275 275 274 272 272 271 270 269 268 267 266 265 265 265 265 265 265 266 266 267 267 267 267 267 266 266 266 266 266 266 267 271 272 273 274 275 276 273 272 271 271 271 272 272 273
292 291 288 286 286 284 284 283 282 281 279 278 277 277 276 276 275 274 273 272 272 271 271 270 269 267 266 266 265 265 265 265 265 265 266 265 266 266 266 266 266 266 266 266 266 265 265 266 269 271 273 274 275 274 272 272 271 271 271 272 272 273
290 289 287 286 285 284 284 282 282 280 278 277 276 275 275 275 274 273 273 272 271 271 270 270 268 267 266 265 265 264 265 265 266 265 266 265 265 266 266 266 266 266 266 266 265 266 265 265 268 271 273 274 275 274 272 271 271 271 271 271 272 273
289 287 287 285 284 284 283 281 280 278 277 276 275 275 274 274 273 272 272 271 270 269 269 268 267 267 266 265 265 265 265 264 265 265 266 265 266 265 266 266 265 265 265 266 265 267 267 266 268 271 272 274 274 274 272 272 271 271 271 271 271 272
286 285 285 284 284 283 281 281 279 277 276 275 275 274 274 273 273 272 271 269 268 267 267 267 266 265 265 264 264 264 264 265 264 264 265 265 265 265 266 266 265 264 264 265 265 266 267 267 268 269 272 274 274 275 273 272 271 270 271 271 272 272
286 285 285 285 283 281 280 279 278 277 275 274 273 273 274 273 272 271 269 268 266 266 265 265 265 264 264 264 263 263 264 264 264 264 264 263 265 265 264 264 263 264 264 266 267 267 268 268 268 269 273 273 274 275 275 272 272 272 272 272 273 273
284 284 283 283 281 280 279 278 277 276 274 273 273 274 274 272 271 269 267 266 265 264 264 263 263 263 263 263 263 262 263 264 264 264 263 264 264 262 262 263 264 264 265 266 267 267 268 269 271 270 271 273 274 275 276 273 273 274 273 273 272 272
283 283 282 280 279 279 278 277 276 275 274 273 273 273 272 270 269 267 266 265 264 263 262 262 262 261 261 262 262 262 263 263 262 262 263 263 262 262 262 263 264 265 265 265 267 268 268 269 269 271 270 273 274 275 276 276 275 277 274 272 271 271
283 282 281 278 278 278 278 277 276 274 273 273 273 271 269 268 267 266 264 263 262 262 261 261 261 261 261 261 262 262 263 262 262 262 263 263 263 264 264 265 265 265 265 265 266 267 268 269 269 270 272 272 274 275 276 277 277 277 274 273 271 270
282 280 278 276 276 276 277 277 275 273 273 273 270 269 267 267 266 264 263 262 261 261 260 260 261 261 261 261 262 262 262 262 262 262 263 263 264 264 264 265 265 265 265 266 266 266 267 268 269 269 271 273 274 275 276 276 276 276 276 271 270 270
281 279 276 275 275 276 276 276 276 272 273 270 269 268 267 265 264 263 262 261 261 260 260 260 260 261 261 261 262 263 263 262 262 263 264 264 264 264 264 264 265 265 266 265 266 266 267 267 268 269 270 271 272 273 274 275 275 274 274 273 271 273
278 277 275 274 274 275 276 276 276 274 271 268 269 267 265 263 263 262 261 261 260 260 260 260 260 260 260 261 262 263 263 263 264 264 264 264 264 264 264 264 265 265 266 265 266 266 267 267 268 268 269 271 271 271 272 271 271 273 272 270 270 271
277 276 275 274 274 274 274 275 274 272 269 268 267 266 265 264 263 262 261 260 260 260 261 261 260 260 260 261 262 262 263 263 264 264 264 264 264 263 264 264 265 265 265 265 265 266 266 266 267 268 269 270 271 271 271 271 270 269 269 269 269 269
277 276 275 274 273 273 274 274 274 269 268 267 265 264 264 264 263 262 260 260 260 260 261 261 260 261 261 261 262 263 264 263 263 264 265 265 265 265 265 265 266 266 266 266 266 266 265 266 266 268 273 271 273 271 270 270 269 269 269 271 273 268
277 276 274 273 272 272 272 273 270 268 268 266 265 264 264 263 262 261 260 260 260 260 260 260 261 261 261 261 261 261 261 263 266 266 264 264 267 268 269 269 267 268 268 267 267 268 266 266 268 273 273 273 273 273 274 273 273 272 271 272 272 268
276 275 273 273 271 271 271 271 267 267 266 265 264 265 263 262 261 261 260 260 260 260 260 260 260 260 261 261 261 261 261 261 264 268 268 268 268 269 269 269 269 270 270 269 267 268 270 271 272 272 272 273 273 273 273 273 272 272 272 272 267 263
275 274 273 272 271 270 270 268 266 265 265 264 264 264 263 263 262 261 260 260 260 260 260 260 260 261 261 261 262 262 262 262 262 264 268 269 268 269 269 269 269 269 269 270 269 269 268 270 271 272 272 272 272 272 272 272 271 271 271 270 269 262
275 275 274 272 270 270 268 265 265 264 264 263 264 264 263 263 262 261 261 261 260 260 261 261 260 261 261 260 260 261 262 263 263 262 263 266 268 268 269 269 269 269 269 269 270 270 270 270 271 271 271 271 271 272 271 271 270 270 270 269 263 261
276 275 273 271 269 268 266 264 263 263 263 263 264 264 264 264 263 262 261 261 261 261 261 260 260 261 261 261 261 261 262 262 263 263 263 262 262 264 267 267 267 268 268 268 269 270 270 270 270 270 271 271 271 271 270 269 265 268 269 267 261 260
276 274 272 269 268 266 264 263 262 262 262 263 264 264 264 264 263 262 261 260 261 261 261 261 261 261 260 260 260 260 260 260 259 259 260 261 261 260 260 260 261 264 267 266 266 268 269 270 270 270 270 270 270 269 268 266 261 260 260 261 261 260
274 272 270 268 266 265 263 262 261 261 261 262 263 265 264 263 262 262 261 261 261 261 262 261 260 260 260 259 260 260 260 260 259 259 258 258 257 258 258 258 259 258 262 265 266 267 268 269 269 269 269 269 269 268 266 259 259 259 259 259 260 259
Wind_Speed
11 12 11 10 10 12 12 12 12 12 13 14 17 16 16 16 14 13 12 13 10 11 13 14 12 11 10 9 9 8 8 8 7 7 6 5 6 5 5 5 6 7 7 7 7 7 8 8 8 8 8 8 8 9 9 9 10 10 12 11 12 12
10 12 12 12 13 13 13 14 12 15 15 16 16 13 14 15 16 15 14 13 11 11 12 12 12 11 11 10 10 8 8 8 8 7 7 6 5 5 6 6 6 6 7 6 7 7 7 8 8 7 8 8 8 9 9 9 10 12 12 13 12 11
12 11 10 9 9 9 10 13 14 14 13 16 17 17 18 17 16 15 14 12 12 14 14 14 12 12 11 11 10 9 9 8 8 7 6 5 6 6 6 7 7 7 7 7 7 8 8 8 8 7 7 8 9 9 10 11 12 13 12 13 14 14
10 10 10 9 11 12 13 13 12 14 16 16 16 15 15 17 16 15 14 13 13 15 14 14 12 12 11 11 10 9 9 8 8 7 6 7 6 6 7 7 6 6 7 8 8 8 8 8 8 8 7 8 9 10 8 9 11 12 13 12 14 14
11 12 14 15 15 13 14 13 13 14 16 16 16 16 17 17 15 14 13 13 14 15 14 13 12 12 12 12 10 10 9 8 8 8 7 7 6 6 6 6 7 7 7 8 8 8 9 9 8 7 7 8 9 10 10 9 10 11 12 13 13 14
6 8 11 12 13 14 15 14 13 13 14 16 15 18 18 16 15 14 14 14 14 15 14 13 12 13 12 12 10 11 10 9 8 8 8 7 6 7 6 7 7 7 7 8 9 9 9 8 7 7 8 9 9 9 10 10 11 11 12 12 13 13
10 11 11 11 11 10 11 12 13 14 15 15 16 16 16 15 14 14 14 15 16 15 14 14 13 13 13 12 10 11 10 10 9 8 8 7 7 7 6 6 6 7 7 8 8 8 8 7 7 8 8 8 9 10 10 11 11 11 12 12 12 13
8 8 10 10 11 12 12 12 12 13 13 15 14 15 15 14 13 14 15 15 15 14 15 14 13 13 13 12 11 11 10 9 9 8 8 7 7 7 6 6 5 5 7 8 8 8 7 7 7 8 9 9 9 9 10 10 11 11 12 12 12 12
10 11 9 9 9 10 10 12 13 13 13 15 15 14 13 14 14 15 15 15 14 14 14 14 13 12 12 11 10 10 9 9 9 8 8 7 6 6 6 6 6 6 7 8 8 7 7 7 8 8 9 9 9 10 10 11 11 11 11 12 14 15
10 10 12 11 11 11 10 10 12 13 14 16 15 15 13 12 14 15 14 14 14 13 14 12 12 12 11 10 10 9 9 9 8 7 7 6 6 6 6 6 6 6 7 7 7 7 6 7 8 8 8 9 9 9 9 9 11 13 14 15 15 16
14 13 11 12 12 13 13 12 12 12 12 13 14 13 14 13 14 14 14 14 13 13 13 12 11 11 10 10 10 9 9 8 7 7 6 6 5 4 5 5 5 7 8 8 7 7 7 7 7 6 7 7 8 8 10 12 12 12 14 14 14 16
15 14 15 13 13 14 13 13 13 14 15 15 14 13 12 13 14 14 14 14 13 13 13 12 11 11 10 10 10 9 9 8 7 6 5 5 5 4 4 5 6 7 8 7 7 6 6 6 6 8 13 12 10 11 10 11 12 13 13 15 16 15
16 17 16 15 14 14 13 12 12 12 13 13 14 14 13 13 13 13 13 13 12 13 12 11 11 11 11 10 9 8 8 7 6 6 5 5 5 5 5 5 7 8 7 7 6 6 6 6 6 12 13 14 17 13 12 11 12 12 13 14 14 15
15 16 17 16 17 14 10 11 13 14 14 13 13 13 13 12 12 12 12 12 12 12 12 11 11 10 10 9 9 8 7 7 6 6 5 5 5 5 5 7 8 7 7 6 5 6 6 7 10 14 14 15 16 15 12 11 12 12 13 13 14 15
12 15 16 15 13 13 13 12 11 13 13 13 12 9 10 10 11 11 11 11 11 11 10 10 10 9 9 9 9 8 7 7 6 6 6 6 5 5 6 7 7 7 6 5 5 6 7 8 11 13 15 15 16 17 16 11 12 13 13 14 16 17
9 10 13 14 14 13 10 10 9 8 8 8 8 10 9 10 9 9 10 9 9 10 10 9 9 10 9 9 9 8 8 7 6 6 5 5 5 6 7 7 7 6 6 5 4 5 7 8 10 14 15 15 17 18 16 12 13 13 15 16 16 17
5 5 6 7 9 9 9 8 8 8 8 9 10 8 9 6 7 6 8 8 8 7 8 9 9 10 10 9 9 8 8 7 7 7 6 5 6 6 6 6 6 6 5 4 4 5 7 8 13 13 15 16 17 18 17 12 13 13 13 16 17 17
7 8 8 7 10 8 8 9 9 10 9 9 10 8 8 8 7 7 6 7 7 7 8 9 10 10 10 10 9 8 8 7 7 7 6 5 5 5 5 4 5 5 5 5 5 5 7 8 13 14 15 16 17 19 13 11 12 13 14 14 14 17
6 7 9 10 10 9 9 9 11 13 11 11 9 11 9 10 10 9 9 8 9 8 9 9 10 10 10 9 9 8 8 8 7 6 5 5 5 5 5 5 5 4 4 4 4 6 7 8 11 13 15 16 18 15 11 11 11 13 13 14 18 18
5 8 11 11 10 10 9 12 15 16 13 13 12 15 11 13 10 11 9 9 8 8 8 7 8 9 9 8 8 8 6 6 5 5 5 6 6 6 5 4 4 4 4 4 5 5 7 8 11 14 15 16 17 16 12 12 13 11 13 17 14 15
7 9 10 11 13 10 13 15 16 17 16 15 12 11 11 12 13 10 10 10 10 9 8 8 7 7 8 7 7 6 6 6 5 5 5 4 4 4 4 5 4 4 3 3 4 9 9 8 9 13 14 16 17 14 10 10 11 15 15 13 17 17
9 7 10 14 14 13 16 16 17 19 17 11 11 14 17 19 16 14 12 10 10 9 9 9 9 8 8 8 7 6 5 4 4 4 5 4 4 4 3 4 4 3 3 3 5 6 6 7 6 8 14 15 17 18 13 10 13 14 15 17 13 12
10 12 11 8 11 12 13 17 17 16 15 14 11 17 12 13 15 15 11 10 10 10 10 8 8 9 8 7 7 6 5 4 5 5 5 4 3 3 2 3 3 3 3 3 4 5 5 5 6 7 14 15 17 20 18 10 11 12 14 13 15 16
4 3 4 5 10 13 16 18 19 17 13 12 12 11 11 12 13 11 12 11 10 10 10 10 9 8 8 8 7 7 5 5 4 4 4 4 3 3 5 5 3 1 1 2 4 4 4 5 9 8 12 15 18 19 21 13 12 15 15 16 15 15
10 10 9 7 9 11 15 18 19 19 18 16 12 12 13 11 11 12 12 12 12 11 11 11 11 9 7 7 7 7 7 6 5 4 4 4 3 5 5 4 2 0 1 2 3 3 3 4 6 11 11 16 18 19 20 22 19 25 16 14 15 15
9 8 7 9 11 14 16 19 18 17 19 16 11 10 12 12 11 12 12 11 12 12 10 11 12 11 9 9 8 7 7 6 6 5 5 5 5 5 4 2 1 0 1 2 3 3 4 5 6 10 14 15 19 20 22 22 24 24 16 14 13 16
13 11 8 9 12 12 16 14 18 21 18 11 14 13 14 13 14 13 13 12 11 10 10 9 9 10 9 9 9 8 7 7 6 6 5 5 5 4 2 2 1 0 1 3 4 4 5 6 7 8 11 17 19 20 21 22 24 23 23 15 12 14
8 11 12 9 10 15 16 16 17 24 21 15 12 12 16 19 22 18 13 11 11 11 11 12 10 9 9 9 7 7 7 7 7 6 6 5 5 4 3 1 1 0 1 3 4 5 6 6 7 8 9 11 13 14 20 23 22 22 23 21 16 22
10 12 13 15 13 16 17 18 13 13 15 17 13 13 21 22 21 14 13 12 12 12 12 12 10 9 8 8 7 6 5 6 5 5 6 5 5 4 3 3 2 0 2 3 4 5 6 6 7 8 8 8 9 10 12 13 13 18 18 13 11 14
13 14 15 16 15 16 18 16 15 14 18 12 16 18 23 22 15 14 13 14 11 11 11 10 13 12 8 7 8 7 6 5 5 6 6 6 6 5 4 3 2 1 2 3 4 5 5 6 6 7 8 9 10 10 9 9 9 11 10 11 12 12
16 16 17 18 14 16 17 17 15 16 19 19 19 22 22 15 14 13 13 12 10 10 9 8 10 9 9 8 7 6 6 6 6 6 4 3 3 4 5 3 2 1 2 2 3 4 5 6 6 7 13 13 16 14 12 12 11 10 10 15 22 14
16 16 18 15 14 17 18 17 15 17 18 22 21 23 25 22 12 12 11 10 9 9 9 8 8 7 7 8 7 6 3 2 6 5 5 6 10 9 5 3 2 1 1 2 3 3 4 4 6 14 17 17 18 19 20 19 19 18 16 20 23 16
16 14 14 14 16 18 18 15 17 21 19 20 18 19 24 22 11 10 10 10 9 10 10 9 8 7 7 7 7 6 6 4 5 10 10 8 9 6 4 4 2 1 2 1 0 3 7 9 12 14 15 16 17 19 19 20 19 18 19 22 15 10
14 16 20 18 18 18 17 16 20 20 18 11 11 19 21 15 12 12 10 10 10 12 11 9 9 9 8 7 6 6 7 6 5 5 10 11 7 7 6 5 3 4 4 4 4 4 3 8 11 13 14 16 17 18 19 19 18 18 19 19 18 8
19 19 19 16 17 17 17 20 20 19 17 12 12 12 15 18 18 12 10 9 10 10 11 10 9 8 8 8 7 6 6 7 7 7 7 7 7 5 7 6 6 6 5 6 7 10 9 9 11 13 14 16 17 19 19 20 19 19 21 18 10 8
18 18 15 16 21 21 21 23 21 21 16 16 15 14 15 17 22 20 11 11 12 11 10 9 8 9 8 7 7 6 6 5 5 6 6 5 3 4 5 3 5 7 7 8 10 12 12 12 13 13 14 16 18 20 20 18 12 16 18 16 9 9
16 14 15 20 20 20 21 24 23 21 21 21 18 20 25 26 23 14 18 27 17 8 10 8 8 7 7 7 7 6 5 6 4 5 4 4 6 5 3 1 1 4 7 7 8 12 12 12 12 13 14 16 17 18 18 14 9 11 10 10 8 9
14 14 15 17 18 21 24 24 18 20 22 23 26 23 23 20 18 12 11 9 11 7 7 7 7 7 7 8 7 6 6 6 5 4 4 4 4 4 3 2 0 1 3 7 10 11 10 11 12 12 13 14 16 16 15 9 9 8 9 9 10 9
Wind_Direction
191 192 193 191 186 184 182 178 175 179 181 184 187 183 174 172 171 174 171 168 167 169 168 167 166 166 167 165 163 167 178 184 193 200 206 205 206 208 214 222 232 236 241 246 256 260 262 265 268 270 270 268 269 271 272 271 270 269 271 268 269 270
204 195 188 190 189 182 182 179 178 180 181 180 186 175 167 167 172 173 171 169 160 161 162 165 165 163 164 165 164 173 180 187 195 199 204 207 204 214 215 222 229 239 243 247 253 258 263 266 266 264 266 271 269 272 272 274 274 272 270 271 269 268
195 195 189 190 191 188 181 181 180 179 177 181 182 174 171 171 173 169 171 165 162 161 164 164 163 162 161 162 168 173 180 185 193 199 202 200 209 205 214 219 228 235 240 246 251 255 259 262 265 266 268 269 271 271 273 274 274 274 272 274 272 269
183 182 180 181 183 187 185 181 174 177 183 181 180 173 173 172 173 172 167 165 162 164 163 162 161 161 160 163 167 174 178 185 189 193 193 203 205 204 215 221 227 235 239 244 249 252 255 257 258 259 261 264 267 268 269 271 274 273 275 274 273 273
185 184 181 184 187 187 184 179 179 182 182 179 184 178 178 175 170 166 162 162 163 164 162 159 161 159 161 164 168 176 180 182 186 187 193 199 199 204 210 218 224 230 235 244 248 249 251 253 255 256 256 261 264 268 267 267 270 271 271 271 272 274
186 175 183 185 187 188 188 183 179 181 183 185 183 184 177 171 166 164 161 162 163 162 159 161 159 159 162 167 172 176 179 179 182 185 191 194 197 201 206 212 222 229 237 243 246 247 249 251 256 257 258 259 262 265 267 267 265 267 268 269 272 275
188 200 192 188 187 189 188 183 182 183 185 185 186 184 176 168 162 161 163 161 160 163 161 161 160 162 165 167 171 175 176 178 178 182 189 190 197 202 205 215 219 230 237 241 243 246 249 253 255 260 261 260 259 262 265 267 267 266 267 268 269 273
193 192 195 188 189 191 188 187 184 185 185 188 184 179 174 167 162 162 163 162 161 163 163 161 161 163 165 166 168 171 174 174 179 181 185 189 196 200 208 214 222 226 238 242 246 248 252 253 255 256 259 262 263 264 265 267 266 267 269 270 273 274
202 213 204 197 191 189 189 184 182 183 183 185 183 180 171 166 162 164 163 164 161 160 162 161 161 160 162 164 166 165 170 174 177 180 179 182 190 199 209 215 220 231 236 243 245 246 251 254 255 257 260 262 263 265 265 267 270 270 273 280 284 282
204 197 197 192 192 190 189 189 186 184 184 184 181 176 168 164 163 165 163 160 162 161 160 157 154 155 158 159 158 162 167 168 170 173 171 174 187 199 212 215 223 232 238 242 245 249 251 256 256 259 260 263 265 268 268 273 279 283 280 276 275 275
211 201 189 195 185 187 190 186 186 185 186 184 180 174 171 162 160 164 161 161 160 158 154 147 149 149 147 151 153 158 162 162 162 163 167 174 186 199 205 215 226 235 241 241 242 245 250 252 256 255 258 261 268 273 277 277 274 276 280 278 278 278
220 212 205 190 181 188 186 185 186 187 184 182 177 171 163 155 166 161 160 161 157 150 147 144 140 142 144 147 154 158 158 159 157 160 169 176 189 195 202 213 227 233 238 241 242 246 249 254 254 255 258 267 271 275 276 280 282 282 278 279 279 276
226 226 219 202 185 190 185 182 181 180 180 179 175 167 162 159 160 159 157 156 149 142 139 138 142 142 148 151 149 151 152 153 154 157 166 175 188 195 203 217 227 229 232 234 241 251 254 256 257 261 267 274 279 285 286 285 282 278 280 281 280 282
225 226 224 214 204 189 176 175 179 179 183 175 169 163 156 155 154 150 152 146 137 138 138 141 140 142 145 144 148 146 147 145 149 157 167 178 188 197 204 220 224 229 231 233 241 251 259 261 263 268 275 281 286 289 289 288 288 288 286 282 284 286
230 225 225 221 206 195 189 173 165 178 178 170 161 134 144 145 145 146 144 137 140 140 141 139 139 137 140 144 142 140 143 145 153 163 174 186 188 195 210 218 224 226 228 232 241 256 263 266 269 272 281 288 291 294 294 290 287 286 282 285 287 287
247 223 221 214 207 196 170 164 160 157 142 127 117 135 139 139 143 136 140 137 139 140 137 135 133 136 138 138 138 142 145 152 164 170 177 178 188 202 215 219 222 227 228 232 247 261 266 269 272 278 286 293 298 299 298 291 287 285 285 285 284 286
222 204 196 193 169 139 139 154 144 129 124 131 135 135 134 133 132 129 136 132 132 129 132 132 135 135 139 139 142 145 151 157 164 173 179 181 192 202 210 215 218 225 221 235 248 256 267 268 273 282 292 298 301 302 304 298 295 289 285 283 278 275
195 192 189 152 137 139 147 154 137 131 134 125 133 136 137 132 128 128 126 126 131 135 138 137 138 135 139 142 145 148 155 162 168 171 178 182 194 202 212 223 222 224 224 231 243 255 265 270 277 287 293 299 304 307 308 301 293 289 287 283 281 281
180 173 144 141 146 145 156 146 135 128 129 136 138 133 140 145 147 150 145 141 142 146 146 146 139 137 141 143 144 149 156 160 167 170 175 179 196 202 210 213 226 226 224 233 243 256 267 273 281 288 296 302 307 311 307 301 295 293 286 286 290 287
143 148 148 147 158 160 151 141 143 137 136 146 145 147 155 155 158 149 144 139 136 133 135 133 130 132 134 138 142 147 150 153 162 169 181 180 194 200 201 217 230 230 229 236 247 259 269 275 285 293 298 304 308 312 308 304 301 290 295 293 282 287
155 149 148 144 163 168 145 149 155 157 157 149 154 154 152 157 138 143 141 135 128 124 117 111 111 116 124 127 133 139 146 156 168 171 176 191 196 199 206 218 231 231 242 245 255 266 271 271 275 287 300 308 311 313 308 305 302 301 293 291 292 286
123 149 162 181 178 151 160 158 156 163 160 161 156 158 163 155 144 118 103 113 115 115 116 123 123 123 127 132 129 132 136 147 164 176 186 199 198 200 209 213 230 239 255 259 249 249 260 276 286 291 303 310 313 315 313 305 305 298 297 297 291 294
174 182 187 161 143 152 149 159 160 168 169 162 162 179 164 137 124 126 121 119 118 120 120 119 121 122 122 127 131 133 145 161 172 176 191 201 212 195 220 225 240 238 248 258 261 269 277 271 290 298 307 310 314 315 317 306 300 296 297 299 304 306
149 126 124 140 133 149 157 162 172 167 156 164 182 158 128 134 135 127 126 126 123 121 120 122 121 119 122 126 130 136 157 171 167 177 186 203 190 194 224 229 220 230 270 283 281 272 278 294 307 311 309 313 316 317 318 314 306 307 309 310 307 308
182 183 170 152 151 149 164 168 175 172 167 176 159 135 140 133 131 131 130 129 129 130 129 128 128 128 128 135 142 150 160 158 166 188 196 196 192 206 221 213 199 236 307 300 294 290 303 309 310 313 313 316 317 319 319 316 315 315 315 311 311 314
168 172 155 155 163 167 168 174 177 172 172 170 135 135 123 132 134 132 131 132 133 132 133 135 136 135 138 143 148 158 159 165 172 187 191 194 205 202 207 184 154 357 299 300 303 310 316 314 315 313 315 317 319 320 318 317 318 319 319 319 315 312
188 177 162 160 167 168 178 178 175 174 176 150 141 147 146 143 141 136 135 136 135 130 128 129 129 135 136 144 152 156 161 165 174 184 187 191 208 200 194 170 137 29 296 300 307 312 316 318 314 314 315 320 320 320 323 323 322 324 325 321 314 310
179 180 182 172 177 177 183 183 176 178 174 135 148 149 139 135 133 134 132 128 129 131 131 127 126 128 137 148 158 163 162 163 178 182 177 189 194 192 185 163 146 165 301 301 308 312 315 317 316 316 314 314 315 325 325 325 328 328 326 324 317 314
184 193 190 189 175 178 183 187 184 176 143 160 146 148 137 138 127 131 134 134 128 134 138 135 139 139 144 156 156 162 158 167 177 174 177 187 185 185 176 158 142 81 290 299 306 312 316 318 318 318 315 321 327 327 324 329 329 330 330 326 316 323
200 200 194 198 185 178 187 188 183 168 148 125 146 128 138 143 147 142 143 136 134 137 141 137 137 138 145 156 159 159 161 173 178 177 186 186 182 181 172 145 140 216 279 293 306 307 314 318 322 325 329 334 332 329 326 328 328 333 333 331 329 337
204 203 197 202 177 173 185 188 180 156 155 153 153 153 145 149 133 127 129 132 129 132 134 128 143 148 144 148 155 160 163 169 175 181 176 179 185 181 154 142 162 210 250 292 297 308 311 321 328 331 333 333 333 334 334 334 339 339 340 336 341 342
203 201 202 200 178 182 187 186 171 154 145 146 151 153 146 135 134 127 134 135 130 129 127 130 138 132 137 144 147 145 136 204 193 180 173 183 197 194 193 170 172 203 266 266 290 305 313 323 322 331 337 337 338 338 339 342 345 344 341 342 349 346
208 205 202 195 183 186 186 178 155 144 144 153 154 163 149 135 134 130 135 139 136 140 133 135 132 139 141 145 144 147 147 158 199 209 201 187 187 186 188 148 131 16 13 26 213 338 345 336 339 343 343 343 343 343 346 349 351 348 347 349 354 343
203 202 205 196 185 183 179 171 162 162 148 153 160 165 151 147 139 144 146 138 134 138 137 134 138 140 141 140 145 150 152 159 158 191 211 205 198 188 164 140 88 57 68 52 42 31 6 356 355 354 351 349 349 351 355 356 356 353 353 353 353 340
206 208 207 189 180 177 175 162 166 157 157 159 161 163 153 148 126 125 134 137 132 135 136 138 140 144 143 143 145 150 157 160 164 165 171 181 181 167 145 98 72 65 71 55 46 31 26 16 11 5 1 359 359 359 1 3 359 358 356 358 355 347
212 211 198 180 182 179 170 163 163 163 159 155 158 163 148 145 137 131 140 144 144 138 144 141 144 142 141 142 138 144 150 162 164 158 157 154 169 165 159 101 60 55 52 48 41 29 25 20 17 13 11 10 9 8 6 4 354 350 357 1 352 343
211 206 189 182 179 176 173 172 164 147 133 146 155 160 161 152 146 128 151 152 150 132 143 140 141 132 128 129 129 133 133 142 141 145 153 165 161 160 161 210 309 13 46 50 35 25 26 21 19 18 17 16 15 15 9 1 356 355 348 351 348 341
205 198 183 176 176 178 177 171 146 138 154 146 161 167 161 137 120 122 121 131 140 122 120 124 130 131 132 133 134 133 131 134 143 143 145 145 144 143 155 182 137 293 333 47 36 25 19 21 21 22 22 19 19 16 14 14 4 351 345 339 337 336